Regional Weather Roundup
Issued by NWS

Home | Current Version | Previous Version | Text Only | Print | Product List | Glossary On
Versions: 1 2 3 4 5 6 7 8 9 10 11 12 13 14 15 16 17 18 19 20 21 22 23 24 25 26 27 28 29 30 31 32 33 34 35 36 37 38 39 40 41 42 43 44 45 46 47 48 49 50
000
ASUS44 KLIX 030101
RWRLA
LOUISIANA WEATHER ROUNDUP
NATIONAL WEATHER SERVICE NEW ORLEANS LA
800 PM CDT TUE SEP 02 2014

NOTE: "FAIR" INDICATES FEW OR NO CLOUDS BELOW 12,000 FEET WITH NO
      SIGNIFICANT WEATHER AND/OR OBSTRUCTIONS TO VISIBILITY.
      SKY/WX - SKY CONDITION AND SIGNIFICANT WEATHER.
      TMP - AIR TEMPERATURE.    DP   - DEWPOINT TEMPERATURE.
      RH  - RELATIVE HUMIDITY.  PRES - PRESSURE.
      HX  - HEAT INDEX.         WCI  - WIND CHILL INDEX.

*  THESE STATIONS ARE NOT NWS OR FAA STATIONS AND ARE NOT UNDER
   NWS QUALITY CONTROL.

LAZ040-048-061>063-065-066-069-030200-
SOUTHEAST LOUISIANA

CITY           SKY/WX    TMP DP  RH WIND       PRES   REMARKS
N.O. AUDUBON     N/A     84  78  81 MISG        N/A  HX  95
N.O. INTL ARPT MOCLDY    85  74  69 S5        30.01R
N.O. LAKEFRONT MOCLDY    83  77  82 CALM      30.02R
N.O. DOWNTOWN* FAIR      84  72  65 CALM      30.02R
SLIDELL        PTCLDY    81  76  84 CALM      30.01R
BATON ROUGE    CLOUDY    76  73  91 VRB3      30.04R
BOOTHVILLE     PTCLDY    83  76  79 CALM      30.01R
BELLE CHASSE   MOCLDY    80  73  79 SW3       30.01R
BOGALUSA*      CLOUDY    82  73  74 NW9       30.04S THUNDER
GALLIANO*      NOT AVBL
NEW ROADS*     FAIR      77  75  93 N6        30.05R
GONZALES*      MOCLDY    78  78 100 CALM      30.02R
HAMMOND*       NOT AVBL
HOUMA*         PTCLDY    81  73  78 CALM      30.01R
PORT FOURCHON* CLEAR     86  73  66 SE5       30.03R

$$

LAZ041-044-053-054-030200-
SOUTHWEST LOUISIANA

CITY           SKY/WX    TMP DP  RH WIND       PRES   REMARKS
LAKE CHARLES   MOCLDY    83  76  79 S6        30.00S
LAFAYETTE      CLOUDY    80  74  81 N7        30.03R
PATTERSON      MOCLDY    81  79  94 CALM      30.05R
SALT POINT       N/A     85  77  77 CALM      30.01R HX  95
NEW IBERIA     CLOUDY    84  77  79 CALM      30.03R
CHENAULT AIRPK PTCLDY    82  75  78 SE5       30.01S

$$

LAZ027-028-030200-
CENTRAL LOUISIANA

CITY           SKY/WX    TMP DP  RH WIND       PRES   REMARKS
FORT POLK      LGT RAIN  72  72 100 SE8       30.00F
ALEXANDRIA INT LGT RAIN  76  74  93 S5        30.00F
ALEXANDRIA     CLOUDY    76  73  91 CALM      30.02S

$$

LAZ001-002-030200-
NORTHWEST LOUISIANA

CITY           SKY/WX    TMP DP  RH WIND       PRES   REMARKS
SHREVEPORT     CLOUDY    76  74  93 S5        29.95R
BARKSDALE AFB  CLOUDY    74  74  99 SE5       29.97R
DTN SHREVEPORT CLOUDY    76  73  91 CALM      29.96R

$$

LAZ014-016-030200-
NORTHEAST LOUISIANA

CITY           SKY/WX    TMP DP  RH WIND       PRES   REMARKS
MONROE         CLOUDY    73  71  93 S5        29.99R
TALLULAH       CLOUDY    75  73  93 SE8       30.00R

$$



USA.gov is the U.S. government's official web portal to all federal, state and local government web resources and services.